Location: Newark
(18.0634°N, 63.0549°W)
Time: 01:00:35
(UTC+00:00)

LightSail 2 - Visible Passes

Search period start: 14 October 2019 00:00
Search period end: 24 October 2019 00:00
Orbit: 707 x 723 km, 24.0° (Epoch: 13 October)

Date Brightness Start Highest point End Pass type
(mag) Time Alt. Az. Time Alt. Az. Time Alt. Az.
14 Oct 5.9 23:01:31 10° WNW 23:06:27 43° N 23:08:28 30° NE visible
15 Oct 8.2 00:47:21 10° WNW 00:47:28 11° WNW 00:47:28 11° WNW visible
15 Oct 5.9 22:03:49 10° W 22:08:47 45° N 22:13:46 10° ENE visible
15 Oct 6.2 23:49:47 10° WNW 23:53:27 38° NW 23:53:27 38° NW visible
16 Oct 5.8 22:52:10 10° WNW 22:57:06 43° N 22:59:27 27° ENE visible
17 Oct 8.0 00:37:48 10° WNW 00:38:27 14° WNW 00:38:27 14° WNW visible
17 Oct 5.7 23:40:15 10° WNW 23:44:28 49° NNW 23:44:28 49° NNW visible
18 Oct 5.6 22:42:40 10° WNW 22:47:41 49° N 22:50:30 24° ENE visible
19 Oct 7.7 00:28:14 10° WNW 00:29:30 18° WNW 00:29:30 18° WNW visible
19 Oct 5.1 23:30:39 10° WNW 23:35:35 75° NNW 23:35:35 75° NNW visible
20 Oct 5.3 22:33:04 10° WNW 22:38:11 63° NNE 22:41:42 20° E visible
21 Oct 7.3 00:18:44 10° W 00:20:43 23° W 00:20:43 23° W visible
21 Oct 5.2 23:21:03 10° WNW 23:26:12 71° SSW 23:26:54 61° SSE visible
22 Oct 5.1 22:23:24 10° WNW 22:28:35 89° NNE 22:33:09 13° ESE visible
23 Oct 7.1 00:09:28 10° W 00:12:10 24° WSW 00:12:10 24° WSW visible
23 Oct 6.0 23:11:34 10° W 23:16:28 43° SSW 23:18:30 29° SSE visible
